HK6LRQ-22 Weather Reports


Display with metric or nautical units.
time (UTC)temp
F
wind
direction
speed
MPH
gust
MPH
rain 1hr
in
rain 24hr
in
rain mn
in
humidity
%
barometer
mb
20260507100608 60 91 4.0 4.0 0.00 0.00 0.00 81 1016.0
20260507093607 60 91 4.0 4.0 0.00 0.00 0.00 81 1015.0
20260507090606 60 91 4.0 4.0 0.00 0.00 0.00 81 1016.0
20260507083605 61 91 4.0 4.0 0.00 0.00 0.00 81 1015.0
20260507080604 61 91 4.0 4.0 0.00 0.00 0.00 81 1016.0
20260507073603 61 91 4.0 4.0 0.00 0.00 0.00 81 1015.0
20260507070602 61 91 4.0 4.0 0.00 0.00 0.00 81 1016.0
20260507063601 61 91 4.0 4.0 0.00 0.00 0.00 81 1015.0
20260507060600 61 91 4.0 4.0 0.00 0.00 0.00 80 1016.0
20260507053559 61 91 4.0 4.0 0.00 0.00 0.00 80 1016.0
20260507050558 61 91 4.0 4.0 0.00 0.00 0.00 80 1017.0
20260507043557 61 91 4.0 4.0 0.00 0.00 0.00 80 1016.0
20260507040556 61 91 4.0 4.0 0.00 0.00 0.00 80 1017.0
20260507033554 62 91 4.0 4.0 0.00 0.00 0.00 80 1016.0
20260507030553 62 91 4.0 4.0 0.00 0.00 0.00 80 1016.0
20260507023552 63 91 4.0 4.0 0.00 0.00 0.00 80 1015.0
20260507020551 63 91 4.0 4.0 0.00 0.00 0.00 80 1015.0
20260507013550 64 91 4.0 4.0 0.00 0.00 0.00 80 1015.0
20260507010549 64 91 4.0 4.0 0.00 0.00 0.00 80 1014.0
20260507003548 65 91 4.0 4.0 0.00 0.00 0.00 80 1014.0
20260507000547 66 91 4.0 4.0 0.00 0.00 0.00 80 1013.0
20260506233546 72 210 8.0 0.0 0.00 0.00 0.00 80 1012.0
20260506230545 72 210 8.0 0.0 0.00 0.00 0.00 80 1011.0
20260506223544 73 210 8.0 0.0 0.00 0.00 0.00 80 1010.0
20260506220543 73 210 8.0 0.0 0.00 0.00 0.00 80 1010.0
20260506213542 74 210 8.0 0.0 0.00 0.00 0.00 80 1009.0
20260506210541 74 210 8.0 0.0 0.00 0.00 0.00 79 1010.0
20260506203540 75 210 8.0 0.0 0.00 0.00 0.00 78 1009.0
20260506200538 76 210 8.0 0.0 0.00 0.00 0.00 77 1010.0
20260506193538 76 210 8.0 0.0 0.00 0.00 0.00 78 1010.0
20260506190537 75 210 8.0 0.0 0.00 0.00 0.00 83 1011.0
20260506183536 74 210 8.0 0.0 0.00 0.00 0.00 82 1010.0
20260506180535 75 210 8.0 0.0 0.00 0.00 0.00 82 1012.0
20260506173534 74 210 8.0 0.0 0.00 0.00 0.00 83 1012.0
20260506170533 75 210 8.0 0.0 0.00 0.00 0.00 83 1013.0
20260506163531 75 200 4.0 0.0 0.00 0.00 0.00 83 1013.0
20260506160530 76 200 4.0 0.0 0.00 0.00 0.00 83 1014.0
20260506153529 71 0 2.0 0.0 0.00 0.00 0.00 92 1014.0
20260506150529 71 0 2.0 0.0 0.00 0.00 0.00 93 1016.0
20260506143527 71 0 2.0 0.0 0.00 0.00 0.00 94 1015.0
20260506140526 72 0 2.0 0.0 0.00 0.00 0.00 94 1016.0
20260506133525 62 160 4.0 0.0 0.00 0.00 0.00 91 1016.0
20260506130524 63 160 4.0 0.0 0.00 0.00 0.00 91 1016.0
20260506123523 64 160 4.0 0.0 0.00 0.00 0.00 91 1016.0
20260506120522 64 160 4.0 0.0 0.00 0.00 0.00 91 1016.0
20260506113521 64 160 4.0 0.0 0.00 0.00 0.00 91 1016.0
20260506110520 64 160 4.0 0.0 0.00 0.00 0.00 91 1016.0
20260506103519 64 160 4.0 0.0 0.00 0.00 0.00 91 1016.0